{"data":{"norad_id":68047,"epoch":"2026-05-25T03:03:13.269024Z","epoch_age_seconds":63743,"freshness":"FRESH","line1":"1 68047U 26041H   26145.12723691  .00006336  00000+0  22017-3 0  9999","line2":"2 68047  53.1592  54.6528 0001125  98.2142 261.8987 15.31040047 13096","mean_motion":15.31040047,"eccentricity":0.0001125,"inclination_deg":53.1592,"raan_deg":54.6528,"arg_perigee_deg":98.2142,"mean_anomaly_deg":261.8987,"bstar":0.00022017,"rev_number":1309,"period_min":94.053712234478,"perigee_km":471.93726734599,"apogee_km":473.47870746815,"semimajor_km":6850.8449874071,"source":"CELESTRAK","updated_at":"2026-05-25T13:38:21.811584Z"}}